This demonstration page uses our WeatherBlox Daily Observations layout. Learn more.

Left ArrowRight Arrow

41.12389, -100.76542

Hourly Observations for July 9, 2018

Temp ( °F °C ) Dew Point ( °F °C ) Humidity (%) Winds ( mph kmh ) Pressure ( in mb ) Visibility ( mi km ) Precip ( " mm )
12:53 am 00:53 Clear 77 25 60 15.6 56 56 SSW 10 17 30.06 1018 10 16 0.00 0.00
1:53 am 01:53 Clear 74 23.3 60 15.6 62 62 SSW 10 17 30.07 1018 10 16 0.00 0.00
2:53 am 02:53 Clear 73 22.8 60 15.6 64 64 SSW 9 15 30.07 1018 10 16 0.00 0.00
3:53 am 03:53 Clear 71 21.7 60 15.6 68 68 SW 5 7 30.08 1019 10 16 0.00 0.00
4:53 am 04:53 Clear 67 19.4 60 15.6 79 79 VRB 5 7 30.09 1019 10 16 0.00 0.00
5:53 am 05:53 Clear 68 20 59 15 73 73 Calm 30.11 1020 10 16 0.00 0.00
6:53 am 06:53 Sunny 67 19.4 60 15.6 79 79 Calm 30.11 1020 10 16 0.00 0.00
7:53 am 07:53 Sunny 70 21.1 62 16.7 76 76 SSW 5 7 30.14 1021 10 16 0.00 0.00
8:53 am 08:53 Sunny 74 23.3 63 17.2 69 69 Calm 30.15 1021 10 16 0.00 0.00
9:53 am 09:53 Sunny 79 26.1 65 18.3 62 62 Calm 30.15 1021 10 16 0.00 0.00
10:53 am 10:53 Sunny 85 29.4 66 18.9 53 53 W 5 7 30.14 1021 10 16 0.00 0.00
11:53 am 11:53 Sunny 88 31.1 67 19.4 50 50 WSW 6 9 30.14 1021 10 16 0.00 0.00
12:53 pm 12:53 Sunny 91 32.8 70 21.1 50 50 SSW 9 15 30.12 1020 10 16 0.00 0.00
1:53 pm 13:53 Sunny 93 33.9 68 20 44 44 SSW 9 15 30.11 1020 10 16 0.00 0.00
2:53 pm 14:53 Sunny 95 35 64 17.8 36 36 S 13 20 30.10 1019 10 16 0.00 0.00
3:53 pm 15:53 Sunny 94 34.4 61 16.1 33 33 SSE 12 19 30.10 1019 10 16 0.00 0.00
4:53 pm 16:53 Sunny 94 34.4 62 16.7 35 35 SSE 9 15 30.10 1019 10 16 0.00 0.00
5:53 pm 17:53 Sunny 94 34.4 64 17.8 37 37 SE 10 17 30.09 1019 10 16 0.00 0.00
6:53 pm 18:53 Sunny 92 33.3 65 18.3 41 41 SSE 9 15 30.08 1019 10 16 0.00 0.00
7:53 pm 19:53 Sunny 88 31.1 65 18.3 46 46 S 6 9 30.08 1019 10 16 0.00 0.00
8:53 pm 20:53 Sunny 81 27.2 66 18.9 61 61 SSE 7 11 30.09 1019 10 16 0.00 0.00
9:53 pm 21:53 Clear 72 22.2 64 17.8 76 76 ESE 7 11 30.11 1020 10 16 0.00 0.00
10:53 pm 22:53 Clear 69 20.6 64 17.8 84 84 SE 7 11 30.13 1020 10 16 0.00 0.00
11:53 pm 23:53 Clear 67 19.4 63 17.2 87 87 SE 7 11 30.13 1020 10 16 0.00 0.00

Powered by AerisWeather